Date,TemperatureHighF,TemperatureAvgF,TemperatureLowF,DewpointHighF,DewpointAvgF,DewpointLowF,HumidityHigh,HumidityAvg,HumidityLow,PressureMaxIn,PressureMinIn,WindSpeedMaxMPH,WindSpeedAvgMPH,GustSpeedMaxMPH,PrecipitationSumIn
2013-9-1,95.3,83.1,75.9,80.2,62.5,49.1,67,50,37,30.01,29.89,29,2,29,0.10
2013-9-2,94.7,81.8,75.0,79.3,60.6,46.6,67,50,35,30.03,29.93,19,2,19,0.01
2013-9-3,95.3,82.8,75.0,78.5,58.7,46.7,64,45,34,30.03,29.93,17,2,17,0.00
2013-9-4,99.2,63.4,34.4,99.9,42.6,-99.9,100,54,5,30.10,29.98,20,1,23,0.00
2013-9-5,97.3,69.3,50.0,78.0,51.2,-99.9,100,52,38,30.10,30.01,8,1,11,0.00
2013-9-6,95.7,79.7,75.3,80.9,52.7,45.7,66,40,33,30.06,29.96,33,1,33,0.54
2013-9-7,93.1,79.4,72.9,77.6,54.5,43.5,65,43,33,30.03,29.93,18,1,18,0.18
2013-9-8,92.7,80.7,73.4,77.6,59.1,44.1,65,49,33,29.99,29.89,18,4,18,0.01
2013-9-9,94.6,82.7,73.7,76.6,60.7,44.8,66,48,35,30.05,29.95,20,4,20,0.00
2013-9-10,93.3,83.2,75.5,75.6,61.4,45.7,65,49,34,30.11,30.01,23,5,23,0.00
2013-9-11,94.7,83.8,76.1,77.3,62.0,45.7,65,49,34,30.09,30.00,22,4,22,0.00
2013-9-12,92.2,80.9,75.3,76.7,57.1,45.1,63,45,33,30.04,29.90,26,1,26,0.00
2013-9-13,94.3,82.6,73.8,77.4,60.1,44.1,64,48,33,29.92,29.80,13,1,13,0.00
2013-9-14,96.8,84.5,76.3,78.7,61.9,45.8,64,48,33,29.99,29.84,17,1,17,0.00
2013-9-15,148.2,60.2,34.4,88.7,14.9,-99.9,100,54,5,30.08,29.98,20,2,20,0.00
2013-9-16,148.9,24.7,32.0,99.9,-42.6,-99.9,100,63,5,30.08,29.98,16,2,21,0.09
2013-9-17,122.2,32.0,31.3,89.3,-36.2,-99.9,100,18,4,30.07,29.96,21,4,22,0.01
2013-9-18,144.5,15.9,-39.3,81.0,-62.6,-99.9,100,24,4,30.06,29.98,23,3,23,0.16
2013-9-19,92.6,75.3,27.8,76.1,48.0,-99.9,94,43,5,30.07,29.99,23,3,23,0.00
2013-9-20,91.8,80.2,71.4,74.9,59.5,42.3,64,50,34,30.04,29.91,16,2,16,0.00
2013-9-21,92.2,80.9,71.4,75.9,59.2,42.0,63,49,33,29.96,29.77,14,1,14,0.00
2013-9-22,92.3,80.1,76.2,76.6,52.8,45.0,62,40,32,29.86,29.75,25,2,25,1.19
2013-9-23,85.6,77.8,75.1,59.5,46.7,44.2,42,33,31,29.97,29.85,16,1,16,1.70
2013-9-24,84.5,78.1,75.5,59.2,47.8,45.2,43,35,33,29.97,29.84,19,3,19,0.23
2013-9-25,82.1,77.5,74.5,65.1,51.5,46.1,57,41,35,29.86,29.79,22,3,22,0.05
2013-9-26,91.6,81.6,74.8,77.0,58.8,48.0,67,47,35,29.88,29.77,21,4,21,0.04
2013-9-27,82.4,75.5,72.0,68.8,51.1,-99.9,65,44,36,29.98,29.86,24,4,24,0.22
2013-9-28,85.0,77.6,72.1,70.8,56.3,44.4,64,49,35,30.02,29.93,22,5,22,0.01
2013-9-29,90.8,78.6,71.2,75.4,58.5,43.9,67,51,35,30.01,29.90,24,3,24,0.00
2013-9-30,90.9,78.6,70.7,76.2,58.5,43.0,66,51,35,30.03,29.92,21,2,21,0.00